Location: Pace/Milton
(30.6162°N, 87.1503°W)
Time: 12:26:22
(UTC-06:00)

N. Korean satellite - Pass Details

Date: 01 December 2021
Orbit: 447 x 491 km, 97.3° (Epoch: 21 January)

Event Time Altitude Azimuth Distance (km) Brightness Sun altitude
Rises 05:01:52 0° 8° (N) 2,454 10.1 -18.3°
Reaches altitude 10° 05:03:54 10° 7° (N) 1,576 9.1 -17.9°
Maximum altitude 05:07:15 72° 283° (WNW) 471 6.2 -17.2°
Drops below altitude 10° 05:10:35 10° 198° (SSW) 1,564 9.1 -16.5°
Sets 05:12:36 0° 196° (SSW) 2,433 10.1 -16.1°
